Location: Borkenes
(68.7830°N, 16.1830°E)
Time: 02:57:59
(UTC+01:00)

Vanguard 1 Rocket - Visible Passes

Search period start: 09 December 2019 00:00
Search period end: 19 December 2019 00:00
Orbit: 650 x 4226 km, 34.3° (Epoch: 07 December)

Date Brightness Start Highest point End Pass type
(mag) Time Alt. Az. Time Alt. Az. Time Alt. Az.
16 Dec 11.1 20:17:41 10° S 20:19:42 10° S 20:20:09 10° S visible
17 Dec 11.1 19:06:30 10° S 19:08:50 10° SSE 19:11:02 10° SSE visible
17 Dec 11.1 21:29:40 10° SSW 21:30:15 10° SSW 21:30:15 10° SSW visible
18 Dec 11.0 20:15:25 10° SSW 20:21:21 12° S 20:23:03 12° S visible
